White Rock, British Columbia

11:56 PM PST on January 15, 2018 (GMT -0800)
White Rock

Weather History for CWWK - December, 2013

Change the Weather History Date:

Sunday, December 1, 2013

  Actual Average Record
Temperature  
Mean Temperature 48 °F -  
Max Temperature 52 °F - - ()
Min Temperature 44 °F - - ()
Degree Days  
Heating Degree Days 16    
Moisture  
Dew Point 44 °F    
Average Humidity 84    
Maximum Humidity 92    
Minimum Humidity 66    
Precipitation  
Precipitation 0.51 in - - ()
Sea Level Pressure  
Sea Level Pressure 29.82 in    
Wind  
Wind Speed 4 mph ()    
Max Wind Speed 9 mph    
Max Gust Speed 18 mph    
T = Trace of Precipitation, MM = Missing Value Source: Averaged Metar Reports

Daily Weather History Graph

Daily Weather History Graph

Search for Another Location

Airport or City:

Trip Planner

Search our weather history database for the weather conditions in past years. The results will help you decide how hot, cold, wet, or windy it might be!

Date:

Astronomy

Dec. 01, 2013 Rise Set
Actual Time 7:44 AM PST 4:16 PM PST
Civil Twilight 7:07 AM PST 4:52 PM PST
Nautical Twilight 6:27 AM PST 5:32 PM PST
Astronomical Twilight 5:49 AM PST 6:10 PM PST
Moon 6:02 AM PST (12/1) 3:35 PM PST (12/1)
Length of Visible Light 9h 44m
Length of Day
8h 31m
Waning Crescent, 2% of the Moon is Illuminated
Dec 1
Waning Crescent
Dec 2
New
Dec 9
First Quarter
Dec 17
Full
Dec 25
Last Quarter

Hourly Weather History & Observations

Time (PST) Temp. Windchill Dew Point Humidity Pressure Visibility Wind Dir Wind Speed Gust Speed Precip Events Conditions
12:00 AM 48.6 °F - 46.2 °F 92% 30.07 in - SSE 4.6 mph - 0.07 in   Unknown
1:00 AM 48.7 °F - 46.4 °F 92% 30.03 in - SSE 5.8 mph - 0.08 in   Unknown
2:00 AM 48.7 °F - 46.4 °F 92% 29.98 in - SSE 9.2 mph - 0.10 in   Unknown
3:00 AM 48.9 °F - 46.8 °F 92% 29.94 in - ESE 3.5 mph - 0.12 in   Unknown
4:00 AM 49 °F - 47 °F 89% 29.90 in - SE 2.3 mph - -  
4:00 AM 48.9 °F - 46.8 °F 92% 29.90 in - SE 2.3 mph - 0.10 in   Unknown
5:00 AM 48.9 °F - 46.8 °F 92% 29.84 in - South 4.6 mph - 0.06 in   Unknown
6:00 AM 49.5 °F - 46.9 °F 91% 29.82 in - South 4.6 mph - N/A   Unknown
7:00 AM 49.5 °F - 46.8 °F 90% 29.81 in - South 5.8 mph - N/A   Unknown
8:00 AM 50.4 °F - 47.3 °F 89% 29.81 in - South 4.6 mph - N/A   Unknown
9:00 AM 50.7 °F - 47.1 °F 87% 29.81 in - SSW 4.6 mph - N/A   Unknown
10:00 AM 51 °F - 46 °F 78% 29.82 in - SSW 3.5 mph - -  
10:00 AM 50.5 °F - 46.2 °F 85% 29.82 in - SSW 3.5 mph - N/A   Unknown
11:00 AM 50.9 °F - 46.0 °F 83% 29.84 in - SSW 4.6 mph - N/A   Unknown
12:00 PM 51.4 °F - 46.2 °F 82% 29.81 in - SSW 4.6 mph - N/A   Unknown
1:00 PM 51.8 °F - 45.9 °F 80% 29.81 in - SSW 3.5 mph - N/A   Unknown
2:00 PM 51.1 °F - 45.5 °F 81% 29.81 in - SSW 3.5 mph - N/A   Unknown
3:00 PM 51.1 °F - 45.0 °F 80% 29.78 in - SSW 3.5 mph - N/A   Unknown
4:00 PM 47 °F - 44 °F 83% 29.78 in - Calm Calm - -  
4:00 PM 47.5 °F - 43.5 °F 86% 29.78 in - Calm Calm - 0.12 in   Unknown
5:00 PM 48.4 °F - 44.2 °F 86% 29.76 in - SSW 4.6 mph - N/A   Unknown
6:00 PM 47.8 °F - 43.7 °F 86% 29.74 in - WSW 2.3 mph - N/A   Unknown
7:00 PM 47.5 °F - 40.3 °F 76% 29.72 in - WSW 3.5 mph - N/A   Unknown
8:00 PM 47.1 °F - 40.5 °F 78% 29.73 in - WSW 2.3 mph - N/A   Unknown
9:00 PM 46.4 °F 45.2 °F 40.1 °F 79% 29.73 in - WSW 3.5 mph - N/A   Unknown
10:00 PM 46 °F - 38 °F 67% 29.73 in - West 3.5 mph - -  
10:00 PM 45.7 °F 44.4 °F 38.5 °F 76% 29.73 in - West 3.5 mph - N/A   Unknown
11:00 PM 44.4 °F 40.5 °F 33.8 °F 66% 29.75 in - West 6.9 mph 18.4 mph N/A   Unknown